Regional Weather Roundup
Issued by NWS

Home | Current Version | Previous Version | Graphics & Text | Print | Product List | Glossary On
Versions: 1 2 3 4 5 6 7 8 9 10 11 12 13 14 15 16 17 18 19 20 21 22 23 24 25 26 27 28 29 30 31 32 33 34 35 36 37 38 39 40 41 42 43 44 45 46 47 48 49 50
000
ASUS43 KDTX 221201
RWRMI
MICHIGAN HOURLY REGIONAL WEATHER ROUNDUP
NATIONAL WEATHER SERVICE DETROIT/PONTIAC MI
700 AM EST SUN JAN 22 2017

NOTE: "FAIR" INDICATES FEW OR NO CLOUDS BELOW 12,000 FEET WITH NO
SIGNIFICANT WEATHER AND/OR OBSTRUCTION TO VISIBILITY.

MIZ047>049-052>055-059>063-066>070-074>076-081>083-221300-
SOUTHEAST LOWER MICHIGAN

CITY           SKY/WX    TMP DP  RH WIND       PRES   REMARKS
ADRIAN         FOG       38  38 100 CALM      29.60R VSB 1/4
6HR MIN TEMP:  34; 6HR MAX TEMP:  39;

ALMA           SNOW      35  35  99 CALM      29.61R VSB 1/4
ANN ARBOR      FOG       42  42 100 NE3       29.58S VSB 1/2
BAD AXE        FOG       38  38 100 SE3       29.61R VSB 1/2
6HR MIN TEMP:  38; 6HR MAX TEMP:  43;

CARO           FOG       41  41 100 CALM      29.59R VSB 1/2
DETROIT CITY   FOG       41  41 100 N3        29.61R VSB 1/4
6HR MIN TEMP:  38; 6HR MAX TEMP:  41;

DETROIT        FOG       41  41 100 CALM      29.61R VSB 1/4
6HR MIN TEMP:  40; 6HR MAX TEMP:  42;

FLINT          FOG       40  40 100 CALM      29.60R VSB<1/4
6HR MIN TEMP:  33; 6HR MAX TEMP:  47;

GROSSE ILE     FOG       38  38  98 CALM      29.59F VSB 1/4
6HR MIN TEMP:  35; 6HR MAX TEMP:  41;

HILLSDALE      FOG       37  37 100 CALM      29.57S VSB 1/4
HOWELL         FOG       41  40  97 CALM      29.59R VSB<1/4

CITY           SKY/WX    TMP DP  RH WIND       PRES   REMARKS
JACKSON        FOG       43  42  97 CALM      29.58R VSB 1/4
6HR MIN TEMP:  40; 6HR MAX TEMP:  48; 6HR PCP: TRACE;

LAMBERTVILLE   FOG       45  43  95 CALM      29.60R VSB 1
6HR MIN TEMP:  41; 6HR MAX TEMP:  50;

LANSING        FOG       38  35  89 CALM      29.60R VSB 1/4
6HR MIN TEMP:  38; 6HR MAX TEMP:  48;

LAPEER         FOG       38  38 100 E7        29.60R VSB 1/4 WCI  33
6HR MIN TEMP:  32; 6HR MAX TEMP:  39;

MASON          FOG       40  40 100 CALM      29.59R VSB 1/4
MONROE         FOG       39  39 100 CALM      29.60R VSB 1/2
6HR MIN TEMP:  37; 6HR MAX TEMP:  40;

MT. CLEMENS    FOG       37  37 100 CALM      29.59R VSB 1/2
PONTIAC        FOG       39  37  92 CALM      29.59R VSB 1/8
6HR MIN TEMP:  36; 6HR MAX TEMP:  40;

PORT HOPE        N/A     38  38 100 SW5       29.58F WCI  34
6HR MIN TEMP:  36; 6HR MAX TEMP:  39;

PORT HURON     FOG       39  39 100 CALM      29.62R VSB 1/4
TRI CITIES     FOG       37  37 100 NE5       29.61R VSB 1/4 WCI  33
6HR MIN TEMP:  35; 6HR MAX TEMP:  42;

MIDLAND        FOG       39  38  97 CALM      29.61R VSB 1/4
6HR MIN TEMP:  37; 6HR MAX TEMP:  40;

TROY           FOG       39  38  96 CALM      29.62S VSB 1/4
SAGINAW HB     FOG       36  34  93 CALM      29.60R VSB 1/4
$$
MIZ043>046-050>051-056>058-064>065-071>073-077>080-221300-
SOUTHWEST LOWER MICHIGAN

CITY           SKY/WX    TMP DP  RH WIND       PRES   REMARKS
BATTLE CREEK   FOG       41  41 100 CALM      29.58S VSB 1/4
6HR MIN TEMP:  40; 6HR MAX TEMP:  45;

BENTON HARBOR  FOG       40  39  97 CALM      29.60R VSB 1/4
6HR MIN TEMP:  35; 6HR MAX TEMP:  40;

BIG RAPIDS     FOG       36  35  98 CALM      29.59R VSB 3/4
6HR MIN TEMP:  34; 6HR MAX TEMP:  37;

COLDWATER      FOG       39  39 100 CALM      29.58R VSB 1/4
6HR MIN TEMP:  39; 6HR MAX TEMP:  49;

FREMONT        FOG       37  37 100 CALM      29.59R VSB 1/4
HOLLAND        CLOUDY    41  40  96 NW3       29.60R
6HR MIN TEMP:  34; 6HR MAX TEMP:  41;

GRAND RAPIDS   FOG       35  33  92 CALM      29.59R VSB 1/4
6HR MIN TEMP:  32; 6HR MAX TEMP:  38;

IONIA          FOG       33  33 100 CALM      29.59R VSB<1/4
6HR MIN TEMP:  31; 6HR MAX TEMP:  41;

KALAMAZOO      FOG       40  38  93 CALM      29.59R VSB<1/4
6HR MIN TEMP:  38; 6HR MAX TEMP:  42;

LUDINGTON      FOG       38  38 100 CALM      29.59R VSB 1/4
6HR MIN TEMP:  37; 6HR MAX TEMP:  40;

MARSHALL       FOG       43  43  98 CALM      29.57S VSB 1/4
6HR MIN TEMP:  38; 6HR MAX TEMP:  48;

MOUNT PLEASANT FOG       36  36  99 CALM      29.60R VSB 1/2
6HR MIN TEMP:  33; 6HR MAX TEMP:  38;

MUSKEGON       CLOUDY    41  40  96 CALM      29.60R FOG
6HR MIN TEMP:  38; 6HR MAX TEMP:  42;

SOUTH HAVEN    FOG       39  39 100 NE3       29.60R VSB 1/4
$$
MIZ016>042-221300-
NORTHERN LOWER MICHIGAN

CITY           SKY/WX    TMP DP  RH WIND       PRES   REMARKS
ALPENA         FOG       36  35  96 CALM      29.60F VSB 3/4
6HR MIN TEMP:  35; 6HR MAX TEMP:  38;

BEAVER ISLAND  FOG       37  37 100 CALM      29.58S VSB 1/4
6HR MIN TEMP:  37; 6HR MAX TEMP:  40;

BELLAIRE       FOG       34  34  99 CALM      29.59S VSB 1
6HR MIN TEMP:  34; 6HR MAX TEMP:  36;

CADILLAC       FOG       37  37  97 CALM      29.57S VSB 3/4
CHARLEVOIX     FOG       37  37 100 CALM      29.62R VSB 1/2
FRANKFORT      CLOUDY    37  37 100 CALM      29.59R FOG
GAYLORD        FOG       40  36  86 CALM      29.57S VSB 1/4
6HR MIN TEMP:  38; 6HR MAX TEMP:  41;

GRAYLING       FOG       35  35  99 CALM      29.59S VSB 1/4
6HR MIN TEMP:  35; 6HR MAX TEMP:  42;

HARBOR SPRINGS FOG       35  35 100 CALM      29.59S VSB 1/2
HOUGHTON LAKE  FOG       36  35  96 CALM      29.59R VSB 1/4
6HR MIN TEMP:  36; 6HR MAX TEMP:  41;

MANISTEE       FOG       36  36 100 CALM      29.60R VSB 1/2
OSCODA         FOG       37  37  97 CALM      29.60S VSB 1/2
6HR MIN TEMP:  37; 6HR MAX TEMP:  40;

PELLSTON       FOG       34  33  96 CALM      29.59S VSB 1/4
6HR MIN TEMP:  34; 6HR MAX TEMP:  36;

ROGERS CITY    PTCLDY    37  37  97 SW5       29.60S FOG     WCI  34
TRAVERSE CITY  FOG       37  37 100 CALM      29.58R VSB 1/2
6HR MIN TEMP:  37; 6HR MAX TEMP:  44;

$$
MIZ007>008-015-221300-
EASTERN UPPER MICHIGAN

CITY           SKY/WX    TMP DP  RH WIND       PRES   REMARKS
KINROSS        FOG       35  35 100 E9        29.60S VSB 1/2 WCI  28
6HR MIN TEMP:  34; 6HR MAX TEMP:  35; 6HR PCP: TRACE;

MACKINAC ISLAN FOG       35  35 100 E5        29.59S VSB 1/4 WCI  31
6HR MIN TEMP:  35; 6HR MAX TEMP:  36;

NEWBERRY       FOG       35  34  96 SE5       29.57R VSB 1/4 WCI  31
6HR MIN TEMP:  35; 6HR MAX TEMP:  36;

S. S. MARIE    CLOUDY    37  36  96 SE7       29.60S FOG     WCI  32
6HR MIN TEMP:  36; 6HR MAX TEMP:  38;

MUNISING         N/A     36  36 100 CALM      29.56R
6HR MIN TEMP:  36; 6HR MAX TEMP:  38;

$$
MIZ004>006-011>014-085-221300-
CENTRAL UPPER MICHIGAN

CITY           SKY/WX    TMP DP  RH WIND       PRES   REMARKS
MANISTIQUE     FOG       33  33  97 CALM      29.56S VSB 1/4
6HR MIN TEMP:  33; 6HR MAX TEMP:  36;

ESCANABA       CLOUDY    33  33 100 CALM      29.57R FOG
6HR MIN TEMP:  33; 6HR MAX TEMP:  35;

SAWYER-GWINN   FOG       32  32 100 CALM      29.54R VSB 1/2
$$
MIZ001>003-009>011-084-221300-
WESTERN UPPER MICHIGAN

CITY           SKY/WX    TMP DP  RH WIND       PRES   REMARKS
IRON MOUNTAIN  CLOUDY    33  31  92 CALM      29.53S FOG
6HR MIN TEMP:  33; 6HR MAX TEMP:  34;

HOUGHTON       LGT RAIN  34  32  92 NW5       29.53S FOG     WCI  30
6HR MIN TEMP:  34; 6HR MAX TEMP:  35; 6HR PCP:  0.02;

COPPER HARBOR    N/A     35  35 100 CALM      29.55S
6HR MIN TEMP:  35; 6HR MAX TEMP:  37;

IRONWOOD       FOG       33  33 100 W6        29.57R VSB 1/2 WCI  28
6HR MIN TEMP:  33; 6HR MAX TEMP:  35; 6HR PCP:  0.01;

$$

ABBREVIATIONS USED IN REMARKS
   TC - TEMPERATURE IN CELSIUS
  WCI - WIND CHILL INDEX
   HX - HEAT INDEX
  VSB - VISIBILITY




USA.gov is the U.S. government's official web portal to all federal, state and local government web resources and services.